Tracking 21473 objects as of 19-Sep-2020
HD Live streaming from Space Station
objects crossing your sky now

ARIANE 42P DEB

Track ARIANE 42P DEB now!
10-day predictions


NORAD ID: 44511
Int'l Code: 1992-052J
Perigee: 1,281.9 km
Apogee: 1,427.9 km
Inclination: 66.1 °
Period: 112.6 minutes
Semi major axis: 7725 km
RCS: Unknown
Launch date: August 10, 1992
Source: France (FR)
Launch site: FRENCH GUIANA (FRGUI)

Note: This is SATELLITE DEBRIS
aabbcc
Your satellite tracking list
Your tracking list is empty




NASA's NSSDC Master Catalog

Two Line Element Set (TLE):
1 44511U 92052J   20262.49843626 +.00000361 +00000-0 +18585-2 0  9996
2 44511 066.0691 314.8785 0094474 188.4434 171.4995 12.78443059051466
Source of the keplerian elements: AFSPC